Change the Weather History Date:

Tuesday, January 29, 2013

  Actual Average (KBRL) Record (KBRL)
Temperature  
Mean Temperature 49 °F 26 °F  
Max Temperature 62 °F 35 °F 61 °F (2013)
Min Temperature 36 °F 18 °F -19 °F (1966)
Degree Days  
Heating Degree Days 16 39  
Month to date heating degree days 1131  
Since 1 July heating degree days 3317  
Cooling Degree Days 0 0  
Month to date cooling degree days 0  
Year to date cooling degree days 0  
Moisture  
Dew Point 53 °F    
Average Humidity 97    
Maximum Humidity 100    
Minimum Humidity 85    
Precipitation  
Precipitation 1.10 in 0.04 in 0.95 in (2001)
Month to date precipitation 1.16  
Year to date precipitation 1.16  
Sea Level Pressure  
Sea Level Pressure 29.60 in    
Wind  
Wind Speed 13 mph (SSW)    
Max Wind Speed 18 mph    
Max Gust Speed 25 mph    
Visibility 7 miles    
Events Rain , Thunderstorm    
T = Trace of Precipitation, MM = Missing Value Source: NWS Daily Summary

Daily Weather History Graph

Daily Weather History Graph

Search for Another Location

Airport or City:

Trip Planner

Search our weather history database for the weather conditions in past years. The results will help you decide how hot, cold, wet, or windy it might be!

Date:

Astronomy

Jan. 29, 2013 Rise Set
Actual Time 7:14 AM CST 5:17 PM CST
Civil Twilight 6:45 AM CST 5:46 PM CST
Nautical Twilight 6:12 AM CST 6:19 PM CST
Astronomical Twilight 5:40 AM CST 6:51 PM CST
Moon 8:14 PM CST (1/29) 8:10 AM CST (1/29)
Length of Visible Light 11h 00m
Length of Day
10h 02m
Waning Gibbous, 93% of the Moon is Illuminated
Jan 29
Waning Gibbous
Feb 3
Last Quarter
Feb 10
New
Feb 17
First Quarter
Feb 25
Full

Hourly Weather History & Observations

Time (CST) Temp. Windchill Dew Point Humidity Pressure Visibility Wind Dir Wind Speed Gust Speed Precip Events Conditions
12:15 AM 55.8 °F - 55.8 °F 100% 29.76 in 10.0 mi South 12.7 mph - N/A   Mostly Cloudy
12:35 AM 56.5 °F - 56.5 °F 100% 29.75 in 10.0 mi South 15.0 mph - N/A   Mostly Cloudy
12:55 AM 58.1 °F - 58.1 °F 100% 29.75 in 10.0 mi South 16.1 mph 23.0 mph N/A   Scattered Clouds
1:15 AM 58.1 °F - 58.1 °F 100% 29.74 in 10.0 mi South 15.0 mph 20.7 mph N/A   Clear
1:35 AM 57.2 °F - 55.9 °F 96% 29.73 in 10.0 mi South 13.8 mph - N/A   Clear
1:55 AM 56.3 °F - 55.4 °F 97% 29.72 in 10.0 mi South 15.0 mph - N/A   Clear
2:15 AM 56.3 °F - 55.4 °F 97% 29.72 in 10.0 mi South 13.8 mph - N/A   Scattered Clouds
2:35 AM 57.0 °F - 55.8 °F 96% 29.72 in 7.0 mi South 16.1 mph 21.9 mph N/A Rain Light Rain
2:55 AM 57.2 °F - 56.1 °F 96% 29.71 in 7.0 mi South 18.4 mph 23.0 mph N/A Rain Light Rain
3:15 AM 58.8 °F - 56.5 °F 92% 29.71 in 10.0 mi SSW 18.4 mph 23.0 mph N/A   Scattered Clouds
3:35 AM 59.4 °F - 57.2 °F 93% 29.71 in 10.0 mi South 17.3 mph 23.0 mph N/A   Mostly Cloudy
3:55 AM 58.1 °F - 56.5 °F 94% 29.70 in 10.0 mi South 13.8 mph 19.6 mph N/A   Overcast
4:15 AM 57.6 °F - 56.3 °F 96% 29.70 in 10.0 mi South 15.0 mph - N/A Rain Light Rain
4:35 AM 57.7 °F - 56.7 °F 96% 29.69 in 7.0 mi South 15.0 mph - N/A Rain Light Rain
4:55 AM 58.1 °F - 56.8 °F 96% 29.69 in 10.0 mi South 13.8 mph - N/A   Scattered Clouds
5:15 AM 57.4 °F - 56.5 °F 97% 29.68 in 7.0 mi South 13.8 mph - N/A   Mostly Cloudy
5:35 AM 57.4 °F - 56.5 °F 97% 29.69 in 7.0 mi South 13.8 mph - N/A   Mostly Cloudy
5:55 AM 57.6 °F - 56.7 °F 97% 29.69 in 7.0 mi South 12.7 mph 18.4 mph N/A   Overcast
6:15 AM 58.3 °F - 57.2 °F 96% 29.67 in 10.0 mi South 15.0 mph 21.9 mph N/A   Overcast
6:35 AM 58.5 °F - 57.2 °F 96% 29.67 in 10.0 mi South 15.0 mph - N/A   Overcast
6:55 AM 57.7 °F - 56.5 °F 96% 29.68 in 10.0 mi South 15.0 mph - N/A   Scattered Clouds
7:15 AM 57.7 °F - 56.7 °F 96% 29.67 in 10.0 mi South 12.7 mph - N/A   Mostly Cloudy
7:35 AM 57.7 °F - 56.5 °F 96% 29.66 in 10.0 mi South 11.5 mph - N/A   Mostly Cloudy
7:55 AM 58.1 °F - 56.7 °F 95% 29.66 in 10.0 mi South 12.7 mph - N/A   Scattered Clouds
8:15 AM 59.0 °F - 57.4 °F 94% 29.66 in 10.0 mi South 15.0 mph 23.0 mph N/A   Scattered Clouds
8:35 AM 60.3 °F - 58.1 °F 93% 29.65 in 10.0 mi South 15.0 mph 19.6 mph N/A   Mostly Cloudy
8:55 AM 60.6 °F - 58.1 °F 91% 29.64 in 10.0 mi South 13.8 mph 19.6 mph N/A   Mostly Cloudy
9:15 AM 60.8 °F - 58.1 °F 91% 29.64 in 10.0 mi South 17.3 mph 21.9 mph N/A   Mostly Cloudy
9:35 AM 61.3 °F - 58.6 °F 91% 29.64 in 10.0 mi South 16.1 mph - N/A   Mostly Cloudy
9:55 AM 61.3 °F - 58.5 °F 90% 29.64 in 10.0 mi South 15.0 mph 23.0 mph N/A   Mostly Cloudy
10:15 AM 61.3 °F - 58.5 °F 90% 29.64 in 10.0 mi South 17.3 mph 20.7 mph N/A   Mostly Cloudy
10:35 AM 61.5 °F - 58.5 °F 90% 29.63 in 10.0 mi South 12.7 mph 19.6 mph N/A   Mostly Cloudy
10:55 AM 61.3 °F - 58.6 °F 91% 29.61 in 7.0 mi South 15.0 mph 19.6 mph N/A Rain Light Rain
11:15 AM 62.6 °F - 59.0 °F 88% 29.59 in 10.0 mi South 17.3 mph 21.9 mph N/A   Overcast
11:35 AM 62.6 °F - 58.1 °F 85% 29.62 in 10.0 mi SSW 16.1 mph - N/A Rain , Thunderstorm Light Thunderstorms and Rain
11:55 AM 57.4 °F - 57.4 °F 100% 29.64 in 4.0 mi SW 17.3 mph 25.3 mph 0.07 in Rain , Thunderstorm Thunderstorms and Rain
12:15 PM 56.5 °F - 56.5 °F 100% 29.60 in 7.0 mi SW 9.2 mph - 0.01 in Rain Light Rain
12:35 PM 55.8 °F - 55.8 °F 100% 29.59 in 10.0 mi WSW 8.1 mph - 0.02 in Thunderstorm Overcast
12:55 PM 55.6 °F - 55.6 °F 100% 29.58 in 10.0 mi SSW 10.4 mph - 0.02 in Rain Light Rain
1:15 PM 55.0 °F - 55.0 °F 100% 29.57 in 5.0 mi WSW 8.1 mph - 0.03 in Rain Light Rain
1:35 PM 55.4 °F - 55.4 °F 100% 29.56 in 4.0 mi WSW 8.1 mph - 0.08 in Rain Light Rain
1:55 PM 55.4 °F - 55.4 °F 100% 29.55 in 3.0 mi WSW 4.6 mph - N/A Rain Rain
2:15 PM 55.2 °F - 55.2 °F 100% 29.54 in 3.0 mi West 5.8 mph - 0.04 in Rain Rain
2:35 PM 54.9 °F - 54.9 °F 100% 29.53 in 4.0 mi West 4.6 mph - 0.08 in Rain Rain
2:55 PM 54.5 °F - 54.5 °F 100% 29.51 in 7.0 mi NW 6.9 mph - 0.11 in Rain Light Rain
3:15 PM 53.8 °F - 53.8 °F 100% 29.53 in 5.0 mi NW 9.2 mph - 0.04 in Rain Heavy Rain
3:35 PM 52.0 °F - 52.0 °F 100% 29.55 in 3.0 mi NW 11.5 mph 16.1 mph 0.15 in Rain Rain
3:55 PM 50.9 °F - 50.9 °F 100% 29.54 in 4.0 mi North 9.2 mph - 0.22 in Rain Rain
4:15 PM 50.2 °F - 50.2 °F 100% 29.53 in 3.0 mi North 8.1 mph - 0.04 in Rain Rain
4:35 PM 50.0 °F - 50.0 °F 100% 29.53 in 5.0 mi Calm Calm - 0.07 in Rain Light Rain
4:55 PM 49.1 °F - 49.1 °F 100% 29.55 in 3.0 mi South 3.5 mph - 0.12 in Rain Rain
5:15 PM 49.1 °F - 49.1 °F 100% 29.53 in 1.5 mi Calm Calm - 0.05 in Rain Rain
5:35 PM 49.3 °F - 49.3 °F 100% 29.53 in 1.0 mi Calm Calm - 0.09 in Rain Rain
5:55 PM 48.9 °F - 48.9 °F 100% 29.53 in 0.8 mi ENE 3.5 mph - 0.14 in Rain Rain
6:15 PM 48.7 °F - 48.7 °F 100% 29.52 in 0.8 mi ESE 5.8 mph - 0.03 in Rain Rain
6:35 PM 48.6 °F - 48.6 °F 100% 29.51 in 0.8 mi SE 5.8 mph - 0.06 in Rain Rain
6:55 PM 48.7 °F - 48.7 °F 100% 29.48 in 0.5 mi ESE 8.1 mph - 0.09 in Rain Light Rain
7:15 PM 48.9 °F - 48.9 °F 100% 29.50 in 0.8 mi SSE 4.6 mph - 0.01 in Rain Light Rain
7:35 PM 49.1 °F - 49.1 °F 100% 29.50 in 2.5 mi Calm Calm - 0.03 in Rain Rain
7:55 PM 48.2 °F - 48.2 °F 100% 29.50 in 0.8 mi South 4.6 mph - N/A Rain Rain
8:15 PM 48.0 °F - 48.0 °F 100% 29.50 in 1.0 mi WNW 10.4 mph - 0.02 in Rain Rain
8:35 PM 43.7 °F 39.1 °F 43.7 °F 100% 29.50 in 5.0 mi NW 8.1 mph - 0.06 in Rain Rain
8:55 PM 42.8 °F 40.1 °F 42.8 °F 100% 29.50 in 5.0 mi NW 4.6 mph - 0.11 in Rain Rain
9:15 PM 42.1 °F 35.7 °F 42.1 °F 100% 29.52 in 7.0 mi NW 11.5 mph - 0.03 in Rain Rain
9:35 PM 40.5 °F 34.6 °F 40.5 °F 100% 29.50 in 7.0 mi NW 9.2 mph 12.7 mph 0.06 in Rain Light Rain
9:55 PM 39.6 °F 34.0 °F 39.6 °F 100% 29.52 in 10.0 mi NW 8.1 mph - 0.07 in Rain Light Rain
10:15 PM 39.0 °F 32.3 °F 39.0 °F 100% 29.51 in 10.0 mi NW 10.4 mph - 0.01 in Rain Light Rain
10:35 PM 38.3 °F 31.4 °F 38.3 °F 100% 29.49 in 10.0 mi NW 10.4 mph - 0.02 in Rain Light Rain
10:55 PM 37.6 °F 30.0 °F 37.6 °F 100% 29.48 in 7.0 mi NNW 11.5 mph - 0.02 in Rain Light Rain
11:15 PM 37.2 °F 29.6 °F 37.2 °F 100% 29.46 in 5.0 mi NNW 11.5 mph - 0.01 in Rain Light Rain
11:35 PM 36.9 °F 28.7 °F 36.9 °F 100% 29.47 in 7.0 mi NNW 12.7 mph - 0.02 in Rain Light Rain
11:55 PM 36.7 °F 28.4 °F 36.7 °F 100% 29.49 in 7.0 mi NW 12.7 mph 17.3 mph 0.02 in Rain Light Rain